[[{"header":{"parameterUnit":"m.s-1","parameterCategory":1,"la1":30.2991,"la2":30.254,"lo1":-89.0895,"lo2":-89.0444,"dy":0.0017,"dx":0.0017,"nx":28,"ny":28,"refTime":"2023-10-04T21:00:00:Z","depth":0,"parameterNumber":2,"parameterNumberName":"U-component_of_WINDS"},"data":[0,0,0,0,0,0,0,0,0,0,0,0,0,0,0,0,0,0,0,0,0,0,0,0,0,0,0,0,0,0,0,0,0,0,0,0,0,0,0,0,0,0,0,0,0,0,0,0,0,0,0,0,0,0,0,0,0,0,-4.4528,-4.453,0,-4.4695,-4.4697,-4.4699,-4.4738,-4.4737,-4.4736,-4.4735,-4.4904,-4.4909,-4.4915,0,0,0,0,0,0,0,0,0,0,0,0,0,-4.4243,-4.4248,-4.4528,-4.453,-4.4532,-4.4695,-4.4697,-4.4699,-4.4738,-4.4737,-4.4736,-4.4734,-4.4902,-4.4908,-4.4915,0,0,0,0,0,0,0,0,0,0,0,0,0,-4.4384,-4.4249,-4.4528,-4.4571,-4.4577,-4.4694,-4.4697,-4.47,-4.4739,-4.4737,-4.4735,-4.4734,-4.49,-4.4908,-4.4916,-4.5001,0,0,-4.4941,-4.4945,0,0,0,0,0,0,0,0,-4.4376,-4.4394,-4.4563,-4.4568,-4.4575,-4.4694,-4.4659,-4.4801,-4.4739,-4.4677,-4.4735,-4.4733,-4.4835,-4.4849,-4.4884,-4.5009,-4.5016,-4.4942,-4.4947,-4.4951,-4.4953,0,0,0,0,0,0,0,-4.4366,-4.4387,-4.4594,-4.4565,-4.4573,-4.4583,-4.4601,-4.4686,-4.4763,-4.4682,-4.4686,-4.4705,-4.4838,-4.4876,-4.4888,-4.5019,-4.4942,-4.4949,-4.4954,-4.4958,-4.5225,-4.5227,0,0,0,0,0,0,-4.4349,-4.4379,-4.4589,-4.4599,-4.4469,-4.4589,-4.4609,-4.4657,-4.4763,-4.4777,-4.4706,-4.4706,-4.4862,-4.4878,-4.4894,-4.5001,-4.4951,-4.4958,-4.4963,-4.5223,-4.5225,-4.5227,0,0,0,0,0,0,-4.4342,-4.4367,-4.4582,-4.449,-4.4518,-4.4596,-4.4649,-4.4662,-4.4699,-4.4781,-4.4795,-4.473,-4.4861,-4.4882,-4.4975,-4.5008,-4.4962,-4.497,-4.522,-4.5223,-4.5226,-4.5216,0,0,0,0,0,0,-4.4334,-4.4364,-4.4397,-4.449,-4.4523,-4.466,-4.4652,-4.4666,-4.4714,-4.4715,-4.4807,-4.482,-4.4862,-4.4962,-4.4983,-4.5018,-4.4976,-4.5217,-4.5222,-4.5225,-4.5214,-4.5218,-4.5222,0,0,0,0,0,-4.4324,-4.4387,-4.4399,-4.4424,-4.4566,-4.4662,-4.468,-4.4727,-4.4716,-4.475,-4.4803,-4.4817,-4.5001,-4.4971,-4.4995,-4.5033,-4.5216,-4.522,-4.5225,-4.5212,-4.5217,-4.5222,0,0,0,0,0,0,-4.4294,-4.44,-4.4414,-4.4509,-4.4576,-4.4668,-4.4712,-4.4731,-4.4802,-4.48,-4.4855,-4.4876,-4.4965,-4.5009,-4.4973,-4.5123,-4.5108,-4.5118,-4.509,-4.5096,-4.51,-4.5087,-4.4983,0,0,0,0,0,-4.4299,-4.4368,-4.4457,-4.4532,-4.4566,-4.4633,-4.4676,-4.4707,-4.4778,-4.4807,-4.4866,-4.4935,-4.5008,-4.5055,-4.5127,-4.5221,-4.5242,-4.526,-4.5264,-4.5267,-4.5274,-4.5329,-4.5337,-4.5243,-4.5243,-4.5243,0,0,-4.4309,-4.4375,-4.4415,-4.4528,-4.4584,-4.4654,-4.4656,-4.473,-4.4783,-4.4818,-4.4909,-4.4956,-4.5036,-4.513,-4.5174,-4.5169,-4.5306,-4.5273,-4.5275,-4.5281,-4.5334,-4.5343,-4.5351,-4.5246,-4.5246,-4.5245,0,0,-4.4363,-4.442,-4.449,-4.4546,-4.4631,-4.4676,-4.4693,-4.4783,-4.4815,-4.4908,-4.4936,-4.5,-4.5125,-4.5181,-4.5226,-4.5306,-4.5322,-4.5328,-4.5349,-4.5402,-4.5409,-4.5416,-4.5444,-4.5453,-4.5335,-4.5335,-4.5335,0,-4.4364,-4.4472,-4.4523,-4.4597,-4.4646,-4.4682,-4.4754,-4.4806,-4.4909,-4.4942,-4.4936,-4.5095,-4.5151,-4.526,-4.5279,-4.5315,-4.5336,-4.5316,-4.5404,-4.5412,-4.5419,-4.5446,-4.5456,-4.5335,-4.5335,-4.5335,-4.5335,0,-4.4469,-4.4544,-4.459,-4.4691,-4.4745,-4.4817,-4.488,-4.4929,-4.4956,-4.5002,-4.5097,-4.5167,-4.5254,-4.5283,-4.5309,-4.5396,-4.539,-4.5393,-4.5379,-4.5427,-4.5453,-4.5464,-4.5335,-4.5335,-4.5335,-4.5335,0,0,-4.4506,-4.4636,-4.4652,-4.4699,-4.4797,-4.4855,-4.493,-4.5017,-4.5058,-4.5129,-4.5193,-4.53,-4.5305,-4.5356,-4.5389,-4.5435,-4.5494,-4.5434,-4.5436,-4.5442,-4.5594,-4.559,-4.5601,-4.5507,-4.5509,-4.5511,-4.5587,0,-4.4571,-4.4705,-4.4755,-4.4865,-4.4935,-4.4973,-4.5038,-4.5105,-4.5151,-4.5217,-4.5268,-4.5343,-4.5343,-4.5374,-4.5422,-4.5477,-4.5525,-4.5472,-4.5566,-4.5569,-4.5543,-4.5615,-4.561,-4.5678,-4.5598,-4.56,-4.5601,0,-4.4664,-4.4738,-4.4855,-4.4946,-4.4978,-4.5035,-4.512,-4.5183,-4.526,-4.5291,-4.535,-4.5381,-4.5461,-4.5445,-4.5556,-4.5519,-4.5561,-4.5594,-4.5598,-4.5607,-4.5586,-4.5624,-4.5701,-4.5711,-4.5618,-4.5617,-4.5615,0,-4.4678,-4.4807,-4.4894,-4.4933,-4.5042,-4.5082,-4.5129,-4.5205,-4.5255,-4.5329,-4.5362,-4.5444,-4.5489,-4.5552,-4.5605,-4.5588,-4.5712,-4.57,-4.5739,-4.5737,-4.5761,-4.5758,-4.5844,-4.5791,-4.579,-4.579,-4.579,0,-4.4745,-4.4815,-4.4902,-4.4955,-4.5036,-4.5093,-4.5171,-4.5221,-4.5289,-4.5353,-4.5391,-4.545,-4.5518,-4.5586,-4.5629,-4.5714,-4.5735,-4.5761,-4.5771,-4.5757,-4.5753,-4.5783,-4.5779,-4.5793,-4.5792,-4.5792,-4.5791,0,-4.4773,-4.4834,-4.4932,-4.5028,-4.5054,-4.5108,-4.5191,-4.5244,-4.5293,-4.5374,-4.5396,-4.5473,-4.5555,-4.5616,-4.5722,-4.5751,-4.5842,-4.5853,-4.5816,-4.5821,-4.5856,-4.5851,-4.5963,-4.598,-4.5916,-4.5916,-4.5917,0,-4.481,-4.4865,-4.4968,-4.5014,-4.5061,-4.5135,-4.5186,-4.5246,-4.5298,-4.5393,-4.5435,-4.5521,-4.5592,-4.5722,-4.5787,-4.587,-4.5882,-4.5916,-4.5894,-4.5878,-4.5881,-4.5877,-4.5883,-4.5917,-4.5918,-4.5918,-4.5918,0,-4.487,-4.4898,-4.4971,-4.5056,-4.5116,-4.5185,-4.5255,-4.5291,-4.5363,-4.542,-4.5506,-4.5561,-4.5671,-4.5756,-4.5845,-4.5894,-4.5918,-4.5925,-4.5939,-4.5923,-4.5899,-4.5912,-4.5823,-4.5922,-4.5921,-4.5921,-4.5921,-4.5921,-4.4903,-4.4955,-4.5035,-4.5116,-4.5175,-4.524,-4.5296,-4.5353,-4.5425,-4.5519,-4.5551,-4.5639,-4.5718,-4.5841,-4.5891,-4.5961,-4.596,-4.5979,-4.5984,-4.5988,-4.5986,-4.589,-4.5978,-4.5978,-4.5978,-4.5978,-4.5978,0,-4.4965,-4.5019,-4.5093,-4.519,-4.5254,-4.5274,-4.5353,-4.5404,-4.5482,-4.5554,-4.5624,-4.5723,-4.5806,-4.5879,-4.5965,-4.6008,-4.6021,-4.6028,-4.6025,-4.6036,-4.5983,-4.5962,-4.6016,-4.6016,-4.6016,-4.6016,-4.6016,-4.6016,-4.5004,-4.5092,-4.513,-4.5248,-4.5303,-4.539,-4.5434,-4.5494,-4.5552,-4.5661,-4.5731,-4.5778,-4.5851,-4.5943,-4.6021,-4.604,-4.607,-4.6074,-4.6096,-4.6044,-4.6039,-4.6035,-4.6016,-4.608,-4.608,-4.6143,-4.6144,-4.6144]},{"header":{"parameterUnit":"m.s-1","parameterCategory":1,"la1":30.2991,"la2":30.254,"lo1":-89.0895,"lo2":-89.0444,"dy":0.0017,"dx":0.0017,"nx":28,"ny":28,"refTime":"2023-10-04T21:00:00:Z","depth":0,"parameterNumber":3,"parameterNumberName":"V-component_of_WINDS"},"data":[0,0,0,0,0,0,0,0,0,0,0,0,0,0,0,0,0,0,0,0,0,0,0,0,0,0,0,0,0,0,0,0,0,0,0,0,0,0,0,0,0,0,0,0,0,0,0,0,0,0,0,0,0,0,0,0,0,0,4.0361,4.0361,0,4.0327,4.0327,4.0326,4.0318,4.0318,4.0319,4.0319,4.0277,4.0276,4.0275,0,0,0,0,0,0,0,0,0,0,0,0,0,4.0415,4.0414,4.0361,4.0361,4.036,4.0327,4.0327,4.0326,4.0318,4.0318,4.0319,4.0319,4.0278,4.0276,4.0275,0,0,0,0,0,0,0,0,0,0,0,0,0,4.0387,4.0414,4.0361,4.0352,4.0351,4.0327,4.0327,4.0326,4.0318,4.0318,4.0319,4.0319,4.0278,4.0276,4.0274,4.0255,0,0,4.0268,4.0267,0,0,0,0,0,0,0,0,4.0389,4.0385,4.0354,4.0353,4.0352,4.0327,4.033,4.0302,4.0318,4.033,4.0319,4.0319,4.0293,4.029,4.0283,4.0253,4.0251,4.0268,4.0267,4.0266,4.0265,0,0,0,0,0,0,0,4.0391,4.0387,4.0347,4.0354,4.0352,4.0349,4.0345,4.0325,4.031,4.0329,4.0329,4.0325,4.0293,4.0285,4.0282,4.025,4.0268,4.0266,4.0265,4.0264,4.0205,4.0204,0,0,0,0,0,0,4.0395,4.0388,4.0348,4.0346,4.0372,4.0348,4.0344,4.0335,4.031,4.0307,4.0325,4.0325,4.0288,4.0284,4.028,4.0257,4.0266,4.0264,4.0263,4.0205,4.0205,4.0204,0,0,0,0,0,0,4.0396,4.0392,4.035,4.0367,4.0362,4.0346,4.0336,4.0334,4.0326,4.0307,4.0304,4.032,4.0288,4.0283,4.0262,4.0255,4.0263,4.0261,4.0206,4.0205,4.0205,4.0209,0,0,0,0,0,0,4.0398,4.0392,4.0385,4.0367,4.0361,4.0334,4.0336,4.0333,4.0323,4.0323,4.0301,4.0298,4.0288,4.0265,4.026,4.0253,4.026,4.0206,4.0205,4.0205,4.0209,4.0209,4.0208,0,0,0,0,0,4.04,4.0386,4.0385,4.038,4.0352,4.0333,4.0329,4.032,4.0323,4.0315,4.0303,4.0298,4.0257,4.0263,4.0257,4.0249,4.0206,4.0206,4.0205,4.021,4.0209,4.0208,0,0,0,0,0,0,4.04,4.0383,4.0382,4.0362,4.035,4.0332,4.0322,4.0319,4.0304,4.0304,4.0291,4.0286,4.0266,4.0255,4.0262,4.023,4.0232,4.023,4.0237,4.0237,4.0236,4.0238,4.0258,0,0,0,0,0,4.0399,4.0386,4.0371,4.0355,4.0349,4.0337,4.0328,4.0323,4.0308,4.0302,4.0289,4.0273,4.0257,4.0246,4.023,4.0209,4.0204,4.02,4.02,4.0199,4.0197,4.0187,4.0185,4.0202,4.0202,4.0202,0,0,4.0394,4.0383,4.0376,4.0355,4.0345,4.0331,4.0332,4.0317,4.0307,4.0299,4.0279,4.0269,4.0251,4.0231,4.0221,4.0221,4.0192,4.0198,4.0198,4.0196,4.0186,4.0184,4.0183,4.0201,4.0201,4.0201,0,0,4.0379,4.0369,4.0356,4.0347,4.0332,4.0324,4.0321,4.0305,4.0299,4.028,4.0274,4.0261,4.0233,4.0221,4.0211,4.0195,4.0191,4.019,4.0186,4.0176,4.0175,4.0174,4.0169,4.0167,4.0189,4.0189,4.0189,0,4.0374,4.0355,4.0349,4.0335,4.0327,4.0322,4.0308,4.0299,4.0279,4.0272,4.0274,4.0241,4.0228,4.0205,4.0202,4.0194,4.019,4.0192,4.0176,4.0175,4.0174,4.0169,4.0167,4.0189,4.0189,4.0189,4.0189,0,4.0351,4.0338,4.0329,4.0313,4.0303,4.0289,4.028,4.0271,4.0267,4.0259,4.024,4.0226,4.0208,4.0202,4.0196,4.0179,4.018,4.0179,4.018,4.0172,4.0168,4.0166,4.0189,4.0189,4.0189,4.0189,0,0,4.0333,4.0316,4.0313,4.0306,4.0291,4.0281,4.0267,4.0252,4.0245,4.0232,4.022,4.0198,4.0198,4.0187,4.018,4.0172,4.0162,4.0172,4.0171,4.0171,4.0143,4.0144,4.0142,4.0159,4.0159,4.0159,4.0145,0,4.0316,4.0293,4.0289,4.0269,4.0257,4.0254,4.0242,4.0231,4.0224,4.0213,4.0204,4.0189,4.019,4.0184,4.0175,4.0165,4.0156,4.0166,4.0147,4.0147,4.0152,4.0139,4.014,4.0127,4.0143,4.0143,4.0142,0,4.0293,4.0283,4.0262,4.0252,4.0246,4.0236,4.0223,4.0212,4.02,4.0196,4.0186,4.0181,4.0166,4.017,4.015,4.0157,4.0149,4.0143,4.0142,4.014,4.0144,4.0136,4.0123,4.0121,4.0139,4.0139,4.014,0,4.0283,4.0263,4.0249,4.0244,4.023,4.0224,4.0217,4.0206,4.0198,4.0186,4.0181,4.0167,4.0159,4.0148,4.014,4.0143,4.0121,4.0123,4.0116,4.0116,4.011,4.0111,4.0096,4.0106,4.0106,4.0106,4.0106,0,4.0264,4.0252,4.0245,4.0236,4.0223,4.0218,4.0204,4.0197,4.0188,4.0178,4.0174,4.0164,4.0153,4.0142,4.0135,4.012,4.0116,4.0112,4.011,4.0112,4.0113,4.0106,4.0107,4.0106,4.0106,4.0106,4.0106,0,4.025,4.0245,4.0229,4.0219,4.0217,4.0207,4.0198,4.0189,4.0183,4.017,4.0167,4.0157,4.0144,4.0135,4.0117,4.0113,4.0097,4.0095,4.0101,4.01,4.0094,4.0095,4.0074,4.0071,4.0084,4.0084,4.0084,0,4.0238,4.0229,4.0219,4.0213,4.0208,4.0197,4.0191,4.0185,4.0178,4.0166,4.0158,4.0146,4.0135,4.0114,4.0104,4.0091,4.0089,4.0083,4.0087,4.009,4.009,4.009,4.009,4.0082,4.0082,4.0082,4.0082,0,4.0218,4.0217,4.0208,4.0199,4.0191,4.0183,4.0175,4.017,4.0163,4.0155,4.0143,4.0135,4.0119,4.0106,4.0093,4.0085,4.0082,4.0081,4.0079,4.008,4.0085,4.0083,4.01,4.0081,4.0081,4.0081,4.0081,4.0081,4.0205,4.0198,4.0191,4.0181,4.0175,4.0168,4.016,4.0155,4.0146,4.0133,4.0131,4.0118,4.0108,4.0091,4.0084,4.0073,4.0074,4.007,4.0069,4.0069,4.0069,4.0087,4.0071,4.0071,4.0071,4.0071,4.0071,0,4.0186,4.0182,4.0173,4.0164,4.0156,4.0157,4.0149,4.0142,4.0132,4.0124,4.0115,4.0102,4.009,4.0082,4.007,4.0063,4.0062,4.006,4.006,4.0059,4.0069,4.0072,4.0062,4.0062,4.0062,4.0062,4.0062,4.0062,4.0175,4.0163,4.0162,4.0147,4.0143,4.0132,4.0128,4.0121,4.0115,4.0102,4.0093,4.0089,4.008,4.0069,4.0058,4.0056,4.0052,4.0051,4.0048,4.0057,4.0058,4.0059,4.0062,4.005,4.005,4.0039,4.0039,4.0039]}]]